Wind_Speed
20 20 20 20 21 22 22 24 25 27 28 25 27 25 23 28 19 23 16 14 15 19 14 6 12 16 13 8 9 3 4 9 11 15 20 17 14 9 7 5 12 15 16 18 28 27 16
21 20 21 22 23 23 24 24 25 26 26 22 25 23 22 27 19 20 16 13 14 17 10 8 11 14 13 6 4 4 9 14 13 18 20 20 13 10 7 10 9 3 13 22 18 21 17
24 24 22 22 23 24 21 24 27 26 25 21 21 26 23 22 27 21 16 12 14 16 9 11 9 10 14 18 4 7 10 10 12 17 22 23 17 13 3 5 7 13 10 17 18 13 6
27 25 25 25 23 24 25 23 23 27 25 25 21 19 19 20 26 18 15 12 13 11 7 7 7 10 10 7 7 8 7 6 11 11 4 2 13 7 4 8 11 6 11 6 10 8 4
26 25 26 26 26 26 26 25 25 24 26 26 22 20 15 12 22 16 15 10 10 7 7 6 8 8 10 5 6 3 2 4 8 7 4 5 6 3 3 3 5 7 2 7 4 13 7
27 26 25 26 27 27 27 27 26 24 24 27 24 21 17 11 21 18 10 6 6 8 7 8 9 6 10 5 6 3 1 3 5 4 1 2 3 2 3 4 4 7 5 3 5 7 9
28 27 27 25 27 26 26 26 26 27 26 25 25 21 19 11 20 16 8 2 0 2 11 9 6 6 6 8 4 0 6 2 3 2 1 0 3 5 5 13 11 4 10 9 7 7 7
31 29 28 29 28 27 28 26 26 25 26 26 25 21 20 15 17 15 6 5 4 4 5 13 14 13 9 5 2 2 4 1 2 2 2 2 3 5 10 11 9 5 9 8 10 5 8
33 32 32 31 31 30 30 29 26 26 24 25 21 19 19 12 15 11 5 4 7 4 3 3 14 9 6 4 2 1 7 3 1 2 2 1 5 7 6 2 6 3 6 6 7 6 7
35 36 35 34 36 33 33 31 27 28 24 26 19 14 13 11 7 8 4 6 7 1 2 3 4 5 5 4 1 1 4 2 2 1 1 2 5 1 4 3 3 4 1 7 14 7 3
36 36 37 37 35 35 34 32 31 27 29 23 17 12 5 8 7 7 8 11 7 4 1 3 3 5 4 2 2 2 3 1 1 1 2 1 2 2 5 2 6 2 1 9 9 3 6
37 38 38 38 37 37 38 33 30 28 20 20 18 11 9 4 12 8 11 13 9 1 4 3 4 4 4 1 3 1 2 1 2 2 3 2 3 2 1 4 5 1 5 7 3 3 3
38 40 41 39 36 38 41 34 32 19 17 18 17 11 10 12 11 14 15 16 2 3 1 5 4 4 2 3 2 3 1 2 1 3 1 2 2 4 2 3 4 7 3 3 2 3 2
41 42 42 40 41 40 44 22 14 17 15 15 15 14 13 16 15 20 20 2 3 1 4 3 4 4 4 4 2 2 2 1 2 1 1 2 4 4 4 2 2 3 2 2 4 3 4
42 43 42 39 38 33 27 17 15 14 11 9 12 9 12 15 23 28 19 2 3 5 5 7 3 3 3 2 3 3 2 2 4 6 1 2 3 1 2 3 1 3 3 1 5 3 4
43 45 44 42 36 32 10 11 12 10 9 9 8 8 9 20 30 29 3 3 3 3 3 3 4 3 5 4 3 3 1 3 1 4 2 1 2 2 2 4 2 1 2 2 3 3 4
45 46 44 42 37 29 11 10 10 9 8 9 5 4 5 28 30 12 2 3 4 7 4 4 3 4 3 4 2 3 3 3 2 2 2 1 3 2 2 4 3 3 2 4 4 3 3
46 47 33 33 28 10 9 10 8 8 8 11 3 2 5 28 4 3 3 5 4 4 5 2 2 3 4 4 3 2 2 3 2 4 2 1 3 4 2 4 2 0 2 3 3 2 4
45 37 31 27 17 12 14 11 11 10 12 5 3 6 5 26 4 3 3 1 3 2 3 2 1 1 3 4 4 2 2 2 0 2 2 2 3 2 6 4 3 5 4 4 4 3 2
42 34 26 21 18 17 14 14 14 17 19 12 5 3 4 13 1 4 4 2 3 5 2 2 2 3 4 3 5 3 2 4 3 3 6 4 3 3 4 1 1 2 3 4 4 3 3
38 28 21 21 21 19 19 21 23 26 19 18 11 4 4 4 4 5 6 2 4 3 1 2 3 3 5 4 3 3 2 2 4 3 4 4 4 4 4 3 2 0 1 3 3 2 4
30 27 24 23 23 23 25 25 33 6 27 25 10 5 6 7 15 7 5 3 5 2 2 1 5 4 2 5 5 6 5 2 2 4 3 2 1 1 5 5 6 3 4 3 3 3 2
27 26 23 23 26 25 21 22 18 30 36 13 11 14 13 7 5 4 4 4 6 6 3 2 7 5 4 2 5 10 8 9 5 5 2 3 4 3 2 4 4 3 1 2 2 1 4
26 25 25 25 26 27 17 5 24 24 16 24 22 16 6 2 5 7 6 4 3 1 5 2 6 5 5 24 23 19 20 18 15 8 4 4 4 2 2 3 3 4 1 0 3 1 1
24 25 25 24 27 23 3 9 24 24 13 17 18 8 5 3 4 6 3 3 7 7 4 4 5 8 19 4 5 5 4 5 6 6 7 4 4 3 2 0 3 1 1 4 3 2 2
24 27 27 28 19 10 5 11 22 24 17 15 11 6 6 8 1 4 3 5 3 2 4 4 10 16 2 3 3 3 3 2 0 4 4 4 5 4 2 3 3 5 2 4 3 2 1
24 25 29 18 6 12 14 18 31 23 20 15 11 7 5 8 3 5 2 3 3 4 4 3 4 2 3 2 3 2 2 1 4 6 3 2 2 3 3 2 5 5 4 2 2 5 8
24 21 19 12 4 7 16 28 30 22 16 14 5 4 3 7 7 4 3 3 4 3 4 8 5 1 3 3 2 2 2 4 2 2 4 6 5 3 2 2 5 3 3 5 3 7 9
21 13 9 8 1 10 18 28 26 21 14 12 6 8 13 7 11 14 12 8 6 5 9 9 3 3 4 4 1 3 2 2 3 3 1 2 5 4 6 4 2 4 3 4 8 9 8
Wind_Direction
339 338 337 336 334 335 337 337 336 324 300 285 294 295 307 286 307 291 295 302 303 305 298 276 288 286 296 288 271 252 313 305 295 295 285 281 277 253 230 237 224 225 230 246 244 259 275
331 331 333 331 333 332 334 333 333 333 333 305 284 299 292 272 299 295 289 298 300 303 295 275 278 279 284 268 259 283 313 309 314 297 285 262 238 254 260 233 240 218 239 245 263 243 247
328 329 328 326 326 327 329 330 331 331 332 333 304 290 306 278 276 286 287 291 300 308 271 273 255 266 279 266 260 294 308 320 328 307 280 262 226 251 277 281 284 227 287 248 236 228 236
325 326 327 326 326 326 327 327 327 327 331 332 324 319 305 304 265 271 280 282 296 296 266 262 241 257 259 263 286 294 296 333 335 348 29 165 184 236 312 312 333 210 232 193 196 180 64
324 321 321 321 323 324 326 326 326 326 328 329 334 323 304 302 261 267 280 288 302 283 259 225 242 249 266 281 308 296 293 341 314 346 84 134 168 201 227 321 288 196 190 207 147 188 127
320 319 317 318 318 319 320 322 322 323 324 327 336 329 320 320 259 261 272 281 294 271 240 219 243 249 262 266 307 318 329 316 277 335 144 163 122 205 174 177 249 162 139 151 155 176 191
320 318 317 315 316 318 317 316 317 322 324 326 334 331 329 317 253 254 262 304 36 263 216 198 204 230 285 296 288 68 341 323 260 235 151 277 221 226 257 230 244 168 142 129 93 96 140
323 323 320 318 317 314 314 315 315 316 319 319 329 332 331 319 239 249 249 161 176 293 293 257 241 245 271 279 278 39 336 358 117 235 184 218 265 220 249 248 230 177 135 124 102 122 111
321 320 319 318 317 313 313 310 312 309 310 312 323 331 332 319 234 253 230 203 224 294 259 228 217 237 234 227 198 47 15 324 132 62 353 128 305 303 22 117 166 138 148 165 127 155 98
320 318 317 316 313 312 313 306 302 305 303 304 318 318 339 296 246 253 168 174 195 153 37 204 199 217 199 200 43 66 8 315 7 150 57 284 275 52 36 66 356 149 339 158 146 131 106
318 316 314 311 309 309 308 304 304 298 294 294 301 307 310 290 252 167 148 147 146 203 305 132 165 169 195 168 128 40 322 292 206 275 173 316 5 127 41 333 326 54 26 149 157 111 117
317 315 314 311 311 309 308 301 296 281 291 287 293 291 282 261 235 174 157 137 134 139 247 156 138 216 175 140 89 334 270 296 295 305 127 285 273 348 46 10 348 274 82 60 63 42 74
318 316 315 311 309 313 312 309 302 283 277 280 294 272 290 236 238 191 152 134 116 205 74 165 189 198 195 120 146 197 114 15 95 98 13 316 19 330 87 50 347 83 50 114 74 32 72
317 316 316 314 314 317 309 310 301 285 279 281 284 294 273 250 222 179 158 113 203 215 192 148 140 131 142 154 83 125 56 358 235 99 109 93 8 342 341 64 103 126 238 112 132 145 95
318 316 317 317 315 311 314 305 298 290 286 281 298 294 277 233 189 173 143 175 223 209 171 146 139 134 117 204 149 114 189 256 205 192 122 123 23 294 351 301 336 308 44 239 109 67 92
318 318 317 316 312 313 296 299 304 293 291 290 305 296 292 203 178 167 130 161 246 237 149 143 133 195 142 192 121 135 189 237 311 190 154 238 93 353 324 332 16 295 308 83 9 91 84
318 319 317 314 313 310 312 299 299 293 299 273 308 331 279 168 162 148 162 143 273 254 197 150 140 134 122 138 108 116 172 271 211 153 191 352 50 48 358 25 358 345 21 48 107 58 128
321 327 334 335 330 313 316 303 289 270 273 303 177 231 250 166 129 150 139 148 262 277 195 293 128 112 123 161 108 140 204 245 353 156 77 51 103 52 33 309 293 30 77 60 92 309 52
333 330 332 328 333 334 325 306 282 257 263 247 201 220 224 176 159 136 67 88 285 269 182 225 134 137 123 152 104 96 188 331 310 113 150 188 12 67 353 359 3 32 22 87 64 60 359
341 336 339 342 334 329 309 290 270 259 265 232 199 166 163 183 95 130 119 180 255 222 232 205 123 93 106 82 24 122 90 2 23 74 71 105 88 136 151 148 322 30 43 36 85 80 173
349 351 348 343 336 317 308 305 302 286 254 196 190 195 156 161 139 107 134 230 171 181 268 210 41 111 133 105 77 97 63 33 25 18 37 67 81 64 50 44 130 46 132 118 88 167 97
347 348 346 339 336 331 324 329 336 253 182 183 163 153 127 126 122 112 171 228 199 119 34 278 132 120 86 142 159 183 138 165 159 17 67 37 132 133 22 3 14 74 72 69 35 83 83
342 342 344 341 337 335 346 359 80 126 156 150 141 136 142 127 121 127 195 246 188 122 34 147 149 99 76 89 105 116 99 99 118 138 113 71 120 71 305 344 357 13 262 173 141 168 131
341 339 340 337 340 347 356 59 145 140 159 152 132 127 107 122 160 183 178 226 207 60 145 11 97 91 130 112 100 90 81 77 61 31 56 114 96 83 192 358 53 234 11 59 188 46 247
343 344 346 343 342 338 352 191 168 160 131 153 110 104 113 107 143 148 151 105 101 71 65 80 46 126 147 74 68 55 3 23 11 32 18 64 106 84 106 249 277 11 177 161 157 55 351
341 344 346 345 344 336 270 182 173 167 146 149 124 96 96 117 177 145 150 162 139 110 29 61 93 138 118 72 73 121 182 160 250 6 15 57 98 111 145 108 170 231 217 197 137 359 313
342 348 355 356 1 36 125 155 166 159 162 156 76 88 100 102 94 140 107 178 149 98 101 111 120 98 49 72 77 130 198 169 162 161 176 123 64 139 175 172 284 240 223 158 146 210 172
346 3 15 25 43 85 135 166 159 158 168 174 64 72 107 101 82 163 141 154 151 153 137 156 109 21 60 75 126 187 143 215 100 190 183 182 138 204 103 91 276 160 112 167 187 150 169
351 8 20 18 71 156 153 157 147 150 160 164 59 81 118 100 121 106 96 94 110 125 129 153 126 139 151 92 55 129 143 115 153 213 7 214 181 182 179 209 218 171 193 169 166 167 176
Height
1537 1533 1530 1527 1524 1520 1518 1517 1513 1509 1505 1506 1504 1502 1501 1496 1496 1496 1495 1492 1490 1489 1490 1490 1492 1492 1490 1489 1483 1481 1481 1481 1481 1480 1478 1478 1478 1477 1476 1475 1477 1476 1474 1474 1474 1474 1474
1536 1531 1528 1525 1522 1519 1516 1512 1508 1504 1502 1498 1498 1497 1493 1493 1490 1490 1490 1487 1486 1485 1487 1488 1489 1489 1489 1487 1480 1479 1479 1478 1476 1475 1473 1472 1472 1474 1474 1472 1472 1469 1471 1471 1470 1470 1471
1534 1529 1525 1521 1518 1514 1510 1506 1505 1501 1498 1494 1491 1491 1488 1486 1487 1485 1485 1484 1483 1482 1485 1486 1487 1487 1486 1482 1478 1476 1476 1474 1473 1471 1466 1465 1468 1472 1472 1470 1470 1469 1473 1467 1467 1466 1467
1531 1527 1523 1519 1515 1511 1508 1503 1500 1499 1493 1491 1487 1484 1484 1481 1480 1479 1479 1480 1480 1480 1481 1483 1486 1485 1482 1478 1475 1474 1473 1472 1471 1468 1464 1463 1468 1471 1472 1471 1469 1467 1467 1462 1460 1463 1469
1528 1524 1520 1515 1511 1508 1505 1501 1498 1494 1490 1486 1483 1480 1477 1476 1475 1475 1475 1477 1477 1477 1478 1481 1484 1483 1478 1475 1473 1471 1470 1470 1469 1468 1467 1467 1470 1471 1471 1474 1475 1463 1460 1458 1461 1462 1466
1522 1518 1515 1510 1507 1504 1500 1498 1495 1490 1488 1483 1478 1475 1473 1472 1471 1471 1471 1474 1474 1475 1477 1479 1481 1485 1476 1473 1471 1469 1469 1469 1468 1467 1469 1468 1469 1470 1470 1475 1457 1454 1455 1455 1455 1461 1465
1517 1513 1508 1504 1501 1497 1496 1493 1490 1486 1483 1480 1475 1471 1469 1468 1467 1466 1469 1472 1476 1476 1474 1473 1474 1473 1472 1471 1469 1467 1467 1467 1467 1467 1467 1468 1467 1465 1460 1463 1458 1452 1451 1455 1458 1460 1464
1514 1510 1506 1502 1497 1494 1490 1487 1485 1482 1479 1475 1472 1469 1466 1464 1462 1463 1466 1469 1472 1475 1470 1467 1471 1472 1470 1470 1467 1465 1465 1467 1467 1467 1467 1468 1460 1458 1459 1457 1453 1451 1450 1456 1462 1460 1462
1510 1505 1500 1495 1492 1488 1485 1481 1479 1477 1474 1471 1469 1466 1463 1462 1459 1461 1462 1466 1470 1472 1470 1465 1466 1469 1469 1469 1465 1464 1465 1466 1467 1465 1467 1466 1458 1454 1450 1449 1450 1452 1449 1455 1456 1456 1455
1501 1497 1493 1490 1486 1481 1478 1475 1472 1471 1469 1466 1464 1463 1462 1461 1462 1460 1460 1463 1466 1470 1472 1464 1466 1467 1467 1465 1465 1463 1465 1468 1465 1466 1465 1463 1457 1454 1453 1449 1451 1449 1451 1449 1452 1451 1461
1497 1493 1487 1483 1478 1475 1472 1468 1465 1463 1462 1460 1460 1458 1458 1459 1459 1459 1460 1461 1465 1470 1467 1464 1465 1466 1464 1465 1465 1465 1466 1465 1465 1465 1466 1462 1456 1455 1455 1455 1451 1448 1448 1450 1454 1453 1455
1489 1484 1480 1475 1470 1466 1463 1459 1456 1454 1454 1455 1454 1453 1454 1456 1457 1457 1458 1461 1467 1471 1463 1461 1462 1464 1463 1463 1463 1464 1465 1464 1463 1463 1463 1461 1456 1455 1454 1454 1453 1451 1450 1453 1454 1456 1463
1481 1477 1472 1467 1462 1457 1451 1443 1444 1443 1447 1448 1449 1448 1450 1452 1453 1455 1456 1462 1467 1463 1460 1460 1462 1462 1459 1460 1463 1464 1464 1465 1467 1468 1462 1459 1458 1456 1455 1458 1453 1453 1456 1459 1464 1469 1468
1474 1468 1464 1459 1454 1449 1443 1438 1438 1440 1441 1443 1444 1442 1442 1444 1448 1451 1455 1462 1462 1455 1453 1454 1457 1460 1460 1458 1462 1463 1465 1467 1463 1464 1464 1474 1472 1461 1456 1455 1455 1456 1455 1453 1462 1466 1468
1468 1462 1455 1450 1445 1441 1436 1435 1435 1437 1437 1438 1437 1437 1435 1435 1443 1447 1454 1457 1453 1451 1448 1451 1456 1457 1455 1458 1460 1464 1467 1466 1462 1462 1463 1466 1459 1458 1458 1456 1456 1452 1458 1455 1460 1467 1466
1460 1453 1447 1441 1436 1432 1428 1430 1432 1432 1433 1434 1434 1434 1431 1432 1439 1444 1452 1450 1453 1447 1445 1448 1450 1453 1458 1459 1458 1462 1464 1460 1459 1459 1459 1460 1464 1464 1459 1457 1455 1453 1455 1458 1463 1468 1475
1452 1445 1438 1432 1427 1421 1424 1426 1428 1429 1431 1430 1433 1433 1429 1430 1437 1443 1446 1450 1451 1445 1444 1446 1448 1452 1454 1459 1458 1462 1465 1460 1458 1459 1460 1458 1459 1463 1460 1463 1465 1459 1456 1460 1464 1476 1467
1443 1435 1429 1424 1418 1418 1421 1422 1425 1427 1428 1430 1432 1434 1430 1433 1438 1441 1444 1448 1448 1443 1443 1444 1444 1446 1452 1455 1459 1461 1462 1463 1458 1458 1459 1460 1466 1464 1466 1463 1462 1462 1463 1464 1465 1470 1488
1439 1431 1426 1422 1419 1419 1418 1420 1422 1424 1425 1428 1430 1431 1431 1433 1435 1439 1444 1447 1448 1444 1443 1443 1443 1441 1447 1452 1458 1457 1460 1459 1458 1458 1460 1460 1473 1477 1473 1468 1464 1465 1466 1471 1473 1477 1490
1435 1428 1424 1421 1418 1416 1415 1416 1417 1419 1423 1427 1431 1431 1430 1434 1436 1438 1443 1449 1448 1443 1442 1443 1443 1441 1447 1452 1455 1459 1459 1459 1458 1460 1461 1461 1476 1476 1485 1474 1475 1473 1469 1471 1478 1487 1487
1433 1427 1422 1419 1416 1412 1409 1407 1407 1408 1414 1424 1426 1425 1426 1431 1436 1440 1444 1446 1446 1443 1443 1444 1443 1443 1446 1454 1457 1461 1461 1461 1461 1460 1460 1462 1480 1488 1482 1479 1476 1474 1473 1477 1486 1480 1483
1433 1428 1422 1418 1413 1409 1405 1400 1392 1380 1397 1417 1420 1422 1427 1430 1436 1441 1447 1443 1444 1444 1445 1444 1445 1446 1445 1450 1453 1460 1460 1462 1460 1462 1464 1467 1485 1479 1479 1479 1479 1475 1479 1479 1478 1481 1482
1431 1427 1421 1416 1410 1405 1403 1399 1397 1393 1404 1413 1417 1419 1424 1433 1438 1442 1446 1442 1439 1441 1446 1445 1445 1447 1449 1452 1451 1453 1457 1460 1460 1462 1467 1470 1479 1487 1491 1486 1481 1483 1477 1479 1481 1482 1481
1428 1424 1419 1414 1409 1404 1403 1402 1405 1406 1411 1412 1416 1420 1425 1435 1438 1439 1442 1443 1440 1443 1446 1448 1446 1447 1454 1453 1455 1458 1460 1462 1462 1465 1465 1472 1479 1486 1495 1488 1493 1481 1479 1478 1478 1480 1481
1426 1421 1417 1412 1408 1402 1401 1404 1407 1411 1415 1416 1419 1422 1425 1435 1437 1440 1442 1443 1444 1446 1448 1450 1449 1451 1454 1454 1460 1466 1468 1466 1469 1472 1470 1468 1477 1486 1492 1499 1485 1477 1478 1477 1476 1484 1482
1424 1419 1414 1410 1405 1401 1401 1402 1408 1414 1418 1420 1423 1424 1427 1432 1441 1441 1443 1444 1446 1449 1451 1453 1453 1455 1456 1459 1465 1471 1476 1472 1475 1474 1472 1471 1473 1480 1488 1498 1479 1479 1475 1474 1475 1486 1480
1424 1418 1412 1408 1403 1401 1400 1405 1410 1416 1420 1424 1424 1425 1428 1433 1441 1442 1444 1446 1446 1448 1453 1454 1455 1458 1458 1464 1472 1477 1476 1474 1477 1478 1472 1472 1474 1482 1485 1493 1483 1474 1473 1474 1478 1483 1477
1423 1417 1413 1411 1407 1406 1407 1410 1414 1419 1423 1425 1426 1427 1429 1433 1442 1443 1444 1445 1446 1447 1450 1454 1457 1459 1461 1466 1470 1476 1477 1478 1477 1476 1475 1472 1483 1486 1486 1493 1490 1471 1474 1477 1474 1474 1475
1423 1418 1416 1416 1413 1413 1414 1417 1419 1422 1425 1427 1429 1429 1430 1432 1443 1445 1445 1446 1447 1447 1449 1452 1455 1454 1457 1466 1473 1473 1474 1480 1480 1479 1476 1477 1473 1476 1476 1475 1469 1469 1470 1470 1471 1472 1475